カタログに戻る

STARLINK-32577

運用中通信VLEO
NORAD 62044·PAYLOAD·🇺🇸 United States

打ち上げ Nov 21, 2024 から Cape Canaveral Space Force Station

Loading…

次のパス (今後24時間)

TLE

最新Source: CelesTrak SupGP

元期: Sep 14, 2026, 21:22 UTC

1 62044C 24216N   26257.89076389  .00014626  00000+0  52969-3 0  2572
2 62044  43.0013 274.9105 0001810 272.2902 298.1827 15.27574873    18

AllMySatでSTARLINK-32577をリアルタイム追跡

Download on the App Store